Regional Weather Roundup
Issued by NWS Memphis, TN

Home | Current Version | Previous Version | Text Only | Print | Product List | Glossary On
Versions: 1 2 3 4 5 6 7 8 9 10 11 12 13 14 15 16 17 18 19 20 21 22 23 24 25 26 27 28 29 30 31 32 33 34 35 36 37 38 39 40 41 42 43 44 45 46 47 48 49 50
000
ASUS44 KMEG 192210
RWRMEG
MEMPHIS CWA HOURLY WEATHER ROUNDUP
NATIONAL WEATHER SERVICE MEMPHIS TN
500 PM CDT SAT APR 19 2014

...WEST TENNESSEE...

CITY           SKY/WX    TMP DP  RH WIND       PRES   REMARKS
MEMPHIS INTL   PTSUNNY   76  45  33 N8        30.12F
NWS MEMPHIS      N/A     77 N/A N/A MISG        N/A
JACKSON        SUNNY     77  39  25 CALM      30.12F
LEXINGTON      SUNNY     75  36  23 NE9       30.11F
SILERTON         N/A     80  38  22 NE3         N/A
SAVANNAH       SUNNY     79  39  23 CALM      30.11F
DYERSBURG      SUNNY     75  41  29 CALM      30.15F
UNION CITY     SUNNY     75  39  27 VRB3      30.13F


...EASTERN ARKANSAS...

CITY           SKY/WX    TMP DP  RH WIND       PRES   REMARKS
JONESBORO      MOSUNNY   75  42  30 E7        30.14F
WEST MEMPHIS   MOSUNNY   76  43  30 VRB5      30.12F
BATESVILLE     SUNNY     77  45  31 CALM      30.13F
NEWPORT        MOSUNNY   76  43  30 VRB3      30.16F
WALNUT RIDGE   MOSUNNY   75  46  35 E5        30.15F
BLYTHEVILLE    SUNNY     76  45  33 E6        30.14F
SEARCY         SUNNY     76  49  38 E8        30.15F
STUTTGART      SUNNY     75  50  41 N6        30.15F
PINE BLUFF     SUNNY     76  51  41 E7        30.13F
MONTICELLO     MOSUNNY   76  50  40 E6        30.12F


...NORTH MISSISSIPPI...

CITY           SKY/WX    TMP DP  RH WIND       PRES   REMARKS
TUPELO         SUNNY     78  41  26 N8        30.10S
OXFORD         SUNNY     75  41  29 E7        30.12F
OLIVE BRANCH   PTSUNNY   75  43  31 NE6       30.13F
TUNICA         MOSUNNY   77  45  31 N7        30.13F
CLARKSDALE       N/A     77  46  33 N6        30.13F
CORINTH        SUNNY     77  36  22 NE12      30.11S
GRENADA        SUNNY     79  45  29 N7        30.10F
GREENWOOD      SUNNY     78  48  34 NW7       30.10F
COLUMBUS       SUNNY     80  42  26 NE9       30.09S
STARKVILLE     FAIR      77  43  29 N6        30.10S
GOLDEN TRIANGL SUNNY     79  46  31 N5        30.12S


...SOUTHEAST MISSOURI...

CITY           SKY/WX    TMP DP  RH WIND       PRES   REMARKS
DONIPHAN         N/A     75  38  26 SE6         N/A
WEST PLAINS    SUNNY     74  39  28 S9        30.16F
POPLAR BLUFF   SUNNY     76  40  27 E7        30.15F
CAPE GIRARDEAU SUNNY     76  42  29 SE8       30.15F


...NORTHWEST ALABAMA...

CITY           SKY/WX    TMP DP  RH WIND       PRES   REMARKS
MUSCLE SHOALS  SUNNY     77  40  26 E9        30.12S


...MIDDLE TENNESSEE...

CITY           SKY/WX    TMP DP  RH WIND       PRES   REMARKS
NASHVILLE      MOSUNNY   76  41  28 NE12      30.14S
CLARKSVILLE    SUNNY     75  42  30 NE9       30.14F
DICKSON        SUNNY     73  36  25 E9        30.15S
COLUMBIA       SUNNY     75  54  46 NE10      30.12S
LEWISBURG      SUNNY     75  40  28 N10       30.12F


...WESTERN KENTUCKY...

CITY           SKY/WX    TMP DP  RH WIND       PRES   REMARKS
PADUCAH        SUNNY     77  38  24 VRB6      30.15S
FORT CAMPBELL  SUNNY     75  41  29 NE7       30.15S


...CENTRAL ARKANSAS...

CITY           SKY/WX    TMP DP  RH WIND       PRES   REMARKS
LITTLE ROCK    PTSUNNY   76  45  33 VRB5      30.14F


SKY/WX REPORTED AS FAIR MEANS FEW OR NO CLOUDS BELOW
12 THOUSAND FEET.




USA.gov is the U.S. government's official web portal to all federal, state and local government web resources and services.